Jackson, KY

12:39 PM EST on November 18, 2019 (GMT -0500)
Carroll

Weather History for KJKL - September, 2019

Change the Weather History Date:

Wednesday, September 11, 2019

  Actual Average Record
Temperature  
Mean Temperature 82 °F 70 °F  
Max Temperature 95 °F 80 °F 95 °F (2019)
Min Temperature 69 °F 60 °F 47 °F (1993)
Degree Days  
Heating Degree Days 0 1  
Month to date heating degree days 0 3  
Since 1 July heating degree days 0 5  
Cooling Degree Days 17 6  
Month to date cooling degree days 124 75  
Year to date cooling degree days 1261 1053  
Growing Degree Days 32 (Base 50)    
Moisture  
Dew Point 67 °F    
Average Humidity 66    
Maximum Humidity 90    
Minimum Humidity 41    
Precipitation  
Precipitation 0.00 in 0.12 in 1.89 in (2007)
Month to date precipitation 0.00 1.20  
Year to date precipitation 39.46 34.75  
Snow  
Snow 0.00 in 0.00 in - ()
Month to date snowfall 0.0 0.0  
Since 1 July snowfall 0.0 0.0  
Since 1 September snowfall 0.0 0.0  
Snow Depth 0.00 in    
Sea Level Pressure  
Sea Level Pressure 30.19 in    
Wind  
Wind Speed 2 mph (SW)    
Max Wind Speed 7 mph    
Max Gust Speed 13 mph    
Visibility 10 miles    
Events      
T = Trace of Precipitation, MM = Missing Value Source: NWS Daily Summary

Daily Weather History Graph

Daily Weather History Graph

Search for Another Location

Airport or City:

Astronomy

Sep. 11, 2019 Rise Set
Actual Time 7:11 AM EDT 7:47 PM EDT
Civil Twilight 6:45 AM EDT 8:13 PM EDT
Nautical Twilight 6:14 AM EDT 8:44 PM EDT
Astronomical Twilight 5:42 AM EDT 9:16 PM EDT
Moon 6:55 PM EDT (9/11) 4:37 AM EDT (9/11)
Length of Visible Light 13h 28m
Length of Day
12h 35m
Waxing Gibbous, 94% of the Moon is Illuminated
Sep 11
Waxing Gibbous
Sep 14
Full
Sep 21
Last Quarter
Sep 28
New
Oct 5
First Quarter

Hourly Weather History & Observations

Time (EDT) Temp. Heat Index Dew Point Humidity Pressure Visibility Wind Dir Wind Speed Gust Speed Precip Events Conditions
12:53 AM 79.0 °F - 66.0 °F 64% 30.19 in 10.0 mi Calm Calm - N/A   Clear
1:53 AM 77.0 °F - 66.0 °F 69% 30.20 in 10.0 mi SW 3.5 mph - N/A   Clear
2:53 AM 75.9 °F - 66.0 °F 71% 30.19 in 10.0 mi Calm Calm - N/A   Clear
4:53 AM 73.0 °F - 66.9 °F 81% 30.20 in 10.0 mi Calm Calm - N/A   Clear
5:53 AM 73.0 °F - 66.0 °F 79% 30.21 in 10.0 mi Calm Calm - N/A   Clear
6:53 AM 70.0 °F - 66.9 °F 90% 30.23 in 10.0 mi Calm Calm - N/A   Clear
7:53 AM 72.0 °F - 68.0 °F 87% 30.25 in 10.0 mi Calm Calm - N/A   Mostly Cloudy
8:53 AM 75.0 °F - 66.9 °F 76% 30.27 in 10.0 mi Calm Calm - N/A   Mostly Cloudy
9:53 AM - - - N/A% 30.32 in 10.0 mi Calm Calm - N/A   Clear
10:53 AM 78.1 °F - 68.0 °F 71% 30.27 in 10.0 mi Calm Calm - N/A   Clear
11:53 AM 84.9 °F 87.6 °F 66.9 °F 55% 30.25 in 10.0 mi Variable 4.6 mph - N/A   Clear
12:53 PM 87.1 °F 90.6 °F 68.0 °F 53% 30.23 in 10.0 mi Variable 3.5 mph - N/A   Clear
1:53 PM 90.0 °F 93.6 °F 68.0 °F 48% 30.21 in 10.0 mi North - - N/A   Clear
2:53 PM 91.9 °F 94.5 °F 66.0 °F 42% 30.18 in 10.0 mi WSW 6.9 mph - N/A   Clear
3:53 PM 93.0 °F 96.4 °F 66.9 °F 42% 30.16 in 10.0 mi Variable 3.5 mph - N/A   Clear
4:53 PM 93.0 °F 95.9 °F 66.0 °F 41% 30.14 in 10.0 mi Variable 6.9 mph - N/A   Mostly Cloudy
5:53 PM 91.9 °F 94.5 °F 66.0 °F 42% 30.12 in 10.0 mi Variable 3.5 mph - N/A   Clear
6:53 PM 89.1 °F 91.3 °F 66.0 °F 46% 30.12 in 10.0 mi Variable 3.5 mph - N/A   Clear
7:53 PM 84.0 °F 85.8 °F 64.9 °F 53% 30.12 in 10.0 mi Variable 3.5 mph - N/A   Clear
8:53 PM 82.9 °F 84.6 °F 64.9 °F 54% 30.13 in 10.0 mi Calm Calm - N/A   Clear
9:53 PM 82.0 °F 83.8 °F 64.9 °F 56% 30.19 in 10.0 mi Calm Calm - N/A   Clear
10:53 PM 79.0 °F - 66.9 °F 66% 30.15 in 10.0 mi Calm Calm - N/A   Clear
11:53 PM 79.0 °F - 68.0 °F 69% 30.14 in 10.0 mi SW 3.5 mph - N/A   Clear